Home   Weather   Altdorf   Past weeks

Flag for Switzerland Past Weather in Altdorf, Uri, Switzerland — Yesterday and Last 2 Weeks

Now
27 °F

Chilly.


Feels Like: 27 °F
Forecast: 27 / 48 °F
Wind: 1 mph from South

Location: Altdorf

Current Time: Dec 4, 2016 at 1:12:23 am

Latest Report: Dec 4, 2016 at 12:00 am


Visibility: N/A

Pressure: 30.29 "Hg

Humidity: 94%

Dew Point: 25 °F

Location of AltdorfLocation

Past Weather in Altdorf — Graph

°F

Altdorf Temperature Yesterday

Maximum temperature yesterday: 38 °F (at 1:00 pm)
Minimum temperature yesterday: 24 °F (at 8:00 am)
Average temperature yesterday: 30 °F

High & Low Weather Summary for the Past Weeks

 TemperatureHumidityPressure
High67 °F (Nov 23, 2:00 pm)100% (Nov 19, 10:00 pm)30.66 "Hg (Nov 19, 10:00 pm)
Low24 °F (Dec 3, 8:00 am)29% (Nov 20, 10:00 pm)29.59 "Hg (Nov 21, 12:00 pm)
Average46 °F69%30.07 "Hg
* Reported Nov 18 11:00 pm — Dec 3 11:00 pm, Altdorf, Weather by CustomWeather, © 2016

Note: Actual official high and low records may vary slightly from our data, if they occured in-between our weather recording intervals... More about our weather records

Advertising

Altdorf Weather History for the Previous 24 Hours

Scroll right to see more
 ConditionsComfort  
Time TempWeatherWind HumidityBarometerVisibility
11:00 pm
Sat, Dec 3
27 °FChilly.2 mph92%30.28 "HgN/A
10:00 pm29 °FClear.3 mph91%30.26 "Hg19 mi
9:00 pm29 °FChilly.2 mph90%30.26 "HgN/A
8:00 pm32 °FChilly.5 mph79%30.24 "HgN/A
7:00 pm33 °FOvercast.3 mph84%30.24 "Hg12 mi
6:00 pm32 °FChilly.3 mph86%30.23 "HgN/A
5:00 pm29 °FChilly.3 mph88%30.21 "HgN/A
4:00 pm34 °FPassing clouds.1 mph82%30.19 "Hg19 mi
3:00 pm34 °FChilly.1 mph83%30.17 "HgN/A
2:00 pm36 °FChilly.1 mph77%30.17 "HgN/A
1:00 pm38 °FPassing clouds.1 mph75%30.16 "Hg19 mi
12:00 pm36 °FChilly.1 mph77%30.18 "HgN/A
11:00 am33 °FChilly.2 mph86%30.20 "HgN/A
10:00 am28 °FPassing clouds.2 mph91%30.20 "Hg19 mi
9:00 am27 °FChilly.5 mph90%30.19 "HgN/A
8:00 am24 °FCold.5 mph93%30.20 "HgN/A
7:00 am27 °FPassing clouds.3 mph91%30.18 "Hg12 mi
6:00 am28 °FChilly.3 mph90%30.17 "HgN/A
5:00 am29 °FChilly.2 mph87%30.18 "HgN/A
4:00 am26 °FChilly.3 mph91%30.19 "HgN/A
3:00 am26 °FChilly.2 mph91%30.19 "HgN/A
2:00 am27 °FChilly.2 mph92%30.18 "HgN/A
1:00 am29 °FOvercast.2 mph91%30.18 "Hg9 mi
Weather by CustomWeather, © 2016

See weather overviewHow to use our weather pages